Location: Drionville
(50.6471°N, 2.0524°E)
Time: 11:04:33
(UTC+00:00)

Daily predictions for brighter satellites

Satellite Brightness Start Highest point End
(mag) Time Altitude Azimuth Time Altitude Azimuth Time Altitude Azimuth
Okean O Rocket 3.3 19:07:52 10° E 19:10:40 17° ENE 19:13:27 10° NNE
Meteor 1-24 Rocket 3.7 19:07:51 10° N 19:13:18 79° ENE 19:18:54 10° SSE
Cosmos 1538 Rocket 4.0 19:08:25 10° NNW 19:13:36 88° WSW 19:18:46 10° SSE
Cosmos 2333 4.3 19:09:18 10° S 19:14:42 53° ESE 19:20:08 10° NE
CENTAUR R/B 4.4 19:07:41 10° NW 19:15:32 46° WSW 19:24:19 10° S
Cosmos 372 Rocket 4.0 19:10:59 10° S 19:16:07 60° ESE 19:21:16 10° NNE
Cosmos 1680 Rocket 4.2 19:12:08 10° NNW 19:17:02 39° NE 19:21:52 10° SE
Cosmos 2219 Rocket 2.5 19:15:19 10° S 19:20:35 45° ESE 19:25:53 10° NE
SPOT 5 2.8 19:16:44 10° SSE 19:21:31 82° ENE 19:26:04 10° NNW
CZ-4B R/B 3.6 19:20:14 10° SSE 19:23:48 71° ENE 19:27:31 10° N
Cosmos 2074 Rocket 4.0 19:17:55 10° S 19:24:04 71° E 19:30:19 10° NNE
Meteor 1-31 Rocket 2.5 19:22:56 10° SSE 19:26:27 72° ENE 19:29:58 10° N
Cosmos 1937 Rocket 3.9 19:21:55 10° S 19:26:52 43° ESE 19:31:51 10° NE
SL-24 R/B - RUBIN 2 3.9 19:26:49 10° NW 19:31:07 52° NE 19:35:17 12° ESE
Cosmos 923 Rocket 4.1 19:27:50 10° NNW 19:33:09 65° ENE 19:38:24 10° SE
USA 234 3.3 19:28:39 10° ENE 19:35:15 76° SE 19:41:48 10° SW
NOSS 2-3 (E) 4.3 19:31:45 10° NW 19:36:30 64° NE 19:42:20 12° ESE
COSMOS 2428 3.8 19:33:48 10° SSE 19:38:10 23° ESE 19:42:33 10° NE
IRAS Rocket 4.4 19:34:22 10° SSE 19:39:53 75° WSW 19:45:24 10° NNW
NOSS 2-3 (C) 4.4 19:35:20 10° NW 19:39:56 55° NE 19:45:27 13° ESE
Cosmos 1953 2.5 19:36:50 10° SSW 19:40:23 64° WNW 19:43:58 10° N
Meteor 1-15 Rocket 4.2 19:35:05 10° S 19:40:38 86° E 19:46:16 10° NNE
PAYLOAD B 4.2 19:35:25 10° SSE 19:40:53 70° ENE 19:46:22 10° NNW
CZ-4B R/B 3.4 19:36:00 10° SE 19:41:24 59° ENE 19:46:57 10° N
MetOp-B 4.3 19:36:33 10° SSE 19:41:48 59° ENE 19:47:05 10° N
CZ-4B DEB 4.2 19:36:34 10° SSE 19:42:00 79° ENE 19:47:30 10° NNW
CSL-04 Rocket 4.0 19:36:50 10° S 19:42:21 75° WSW 19:47:56 10° NNW
Cosmos 2278 Rocket 3.2 19:38:20 10° NNW 19:43:27 33° NE 19:47:49 13° ESE
NOSS 3-2 (C) 4.1 19:41:16 10° NW 19:48:24 87° NE 19:56:23 13° SE
Cosmos 1610 Rocket 4.5 19:42:51 10° S 19:49:05 67° E 19:55:18 10° NNE
Cosmos 2333 Rocket 3.1 19:43:40 10° SW 19:49:13 54° NW 19:54:47 10° NNE
Cosmos 1703 Rocket 3.5 19:49:10 10° N 19:53:32 89° E 19:57:49 10° S
Geosat 4.0 19:49:42 10° NE 19:54:41 61° ESE 19:59:37 10° SSW
BREEZE-M DEB (TANK) 1.8 19:53:38 10° W 19:56:03 74° S 19:59:33 14° E
Spot 2 Rocket 3.9 19:53:56 15° SE 19:57:49 44° ENE 20:02:35 10° N
Cosmos 1470 Rocket 3.8 19:53:30 10° SSW 19:57:53 75° W 20:02:16 10° N
Meteor 2-5 Rocket 4.5 19:52:57 10° NNW 19:58:19 54° W 20:03:42 10° S
NOSS 2-3 (D) 4.2 19:53:59 10° NW 19:58:50 81° NE 20:03:54 17° SE
Lacrosse 5 rocket 1.4 19:56:08 10° SSW 19:59:01 31° SE 20:00:40 19° E
ARIANE 6 FM1 Upper Stage 2.6 19:56:15 10° SW 20:00:23 90° WNW 20:04:26 10° NE
CZ-2C R/B 4.4 20:00:39 11° ENE 20:00:54 11° ENE 20:01:45 10° NE
ERS-1 Rocket 3.0 19:58:24 10° SSE 20:03:24 89° WSW 20:08:27 10° NNW
Nadezhda 3 Rocket 4.4 19:57:34 10° NNW 20:03:42 66° W 20:09:45 10° S
Cosmos 1933 Rocket 3.5 20:01:01 10° S 20:05:19 62° E 20:09:41 10° NNE
Cosmos 1943 Rocket 2.5 20:03:43 10° NNW 20:09:17 53° NE 20:12:59 21° SE
Helios 1A Rocket 3.0 20:07:48 10° N 20:11:00 57° WNW 20:14:09 10° SSW
Cosmos 2218 Rocket 4.3 20:06:04 10° SSE 20:11:47 44° E 20:17:33 10° NNE
In-Cosmos 22 Rocket 4.0 20:09:23 10° N 20:14:46 76° ENE 20:19:03 16° SSE
Meteor 1-12 Rocket 4.3 20:08:48 10° S 20:14:47 82° E 20:20:51 10° NNE
USA 59 Rocket 1.4 20:13:08 10° NNW 20:15:28 19° NNE 20:17:17 14° ENE
MOS 1-B 4.4 20:14:20 17° SSE 20:18:46 68° ENE 20:24:31 10° NNW
Cosmos 1733 Rocket 4.1 20:18:20 25° ESE 20:19:14 27° E 20:22:53 10° NNE
CZ-4B R/B 4.1 20:20:21 24° ESE 20:22:35 36° ENE 20:26:59 10° N
SeaSat 1 4.1 20:19:54 14° E 20:22:43 22° NE 20:26:27 10° N
Cosmos 494 Rocket 4.0 20:17:42 10° NNW 20:22:54 88° WSW 20:26:29 21° SSE
Okean-O 2.6 20:20:35 24° SSE 20:23:11 66° ENE 20:27:32 10° N
ATLAS 3B R/B 3.8 20:17:11 10° WSW 20:24:45 54° NW 20:32:29 10° NE
Cosmos 1821 Rocket 4.4 20:22:24 20° SSE 20:26:17 42° E 20:32:09 10° NNE
Cosmos 962 Rocket 4.4 20:21:03 10° S 20:27:18 82° E 20:33:31 10° NNE
Cosmos 1048 Rocket 4.2 20:22:16 10° NNW 20:27:19 55° ENE 20:29:52 28° SE
Cosmos 2360 Rocket 3.4 20:22:44 10° WSW 20:28:07 44° NW 20:33:32 10° NNE
Timation 2 Rocket 4.2 20:26:31 10° NNW 20:32:42 62° NE 20:36:19 27° SE
Cosmos 1869 Rocket 3.5 20:30:55 10° S 20:35:17 88° E 20:39:44 10° N
Cosmos 2322 Rocket 3.8 20:31:01 10° WSW 20:36:12 37° NW 20:41:26 10° NNE
ADEOS 4.2 20:32:47 11° S 20:37:47 55° W 20:42:56 10° NNW
Aureole 3 3.9 20:34:41 10° N 20:38:37 47° ENE 20:40:03 35° SE
Terra 2.6 20:34:16 10° S 20:38:43 49° W 20:43:17 10° NNW
CZ-4 R/B 3.6 20:37:20 10° SW 20:40:17 21° W 20:43:14 10° NW
ATLAS 5 CENTAUR R/B 4.0 20:42:41 10° NNW 20:44:02 12° N 20:45:28 10° NNE
Cosmos 2242 Rocket 3.6 20:40:24 10° N 20:44:53 62° ENE 20:46:21 39° SE
Okean O Rocket 1.7 20:43:57 26° S 20:46:21 72° WSW 20:50:43 10° NNW
SL-08 R/B 3.5 20:42:24 10° NNE 20:47:17 77° WNW 20:52:11 10° SSW
Cosmos 2237 Rocket 2.8 20:47:31 32° ESE 20:48:10 33° ESE 20:53:13 10° NE
Cosmos 1980 4.2 20:47:57 33° SE 20:48:57 36° ESE 20:54:04 10° NE
Cosmos 1025 Rocket 3.9 20:45:12 10° N 20:49:01 32° ENE 20:49:24 31° E
Cosmos 1125 Rocket 4.5 20:51:20 27° E 20:51:20 27° E 20:55:15 10° NE
Cosmos 2322 3.6 20:46:17 10° SSW 20:52:00 83° ESE 20:57:46 10° NNE
CZ-4B R/B 2.5 20:51:35 58° ESE 20:52:04 67° ENE 20:55:35 10° N
ASTEX 1 3.3 20:50:47 36° SSE 20:52:40 67° E 20:57:32 10° N
Cosmos 2292 Rocket 4.5 20:47:11 10° N 20:52:48 42° ENE 20:54:03 36° ESE
Cosmos 2341 Rocket 4.0 20:47:50 10° S 20:54:05 85° W 21:00:26 10° N
Meteor 1-21 Rocket 4.4 20:52:04 10° NNW 20:57:39 71° W 21:01:08 24° S
Cosmos 1400 Rocket 3.6 21:03:02 32° NE 21:03:02 32° NE 21:05:23 10° NNE
USA 186 3.7 21:04:43 18° WNW 21:04:43 18° WNW 21:05:46 10° NW
SPOT 3 Rocket 3.5 21:02:11 39° SSE 21:04:09 82° ENE 21:09:22 10° NNW
Cosmos 2219 Rocket 3.6 20:59:24 10° WSW 21:04:37 39° NW 21:09:51 10° NNE
SOZ 4.4 21:04:39 10° WNW 21:10:11 86° NNE 21:10:17 83° ENE
Meteor 2-21 Rocket 4.4 21:06:24 10° N 21:12:32 76° ENE 21:14:50 41° SSE
USA 245 3.7 21:17:15 52° SSW 21:18:00 64° W 21:22:36 10° NNW
USA 234 3.8 21:11:45 10° ENE 21:18:10 59° NNW 21:24:35 10° W
Cosmos 2369 Rocket 3.5 21:14:11 10° NNW 21:19:01 29° NE 21:20:57 23° ENE
Cosmos 1674 Rocket 3.3 21:15:25 10° N 21:19:43 73° ENE 21:19:57 70° ESE
COSMOS 2428 2.9 21:16:07 10° SW 21:21:51 72° WNW 21:27:36 10° NNE
Helios 1B rocket 4.1 21:23:49 19° NE 21:23:49 19° NE 21:25:38 10° NNE
NOSS 0 Rocket 3.8 21:18:32 10° SSW 21:24:47 84° ESE 21:31:04 10° NNE
Cosmos 1727 Rocket 4.0 21:19:36 10° N 21:26:01 85° W 21:28:33 39° S
Cosmos 2278 Rocket 2.6 21:22:17 10° NW 21:27:51 57° WSW 21:29:39 39° SSW
Ariane Rocket 2.9 21:26:52 53° S 21:28:04 81° WSW 21:33:08 10° NNW
USA 238 DEB 3.9 21:21:49 10° NW 21:29:09 79° SW 21:32:16 41° SSE
USA 238 3.9 21:21:59 10° NW 21:29:20 80° SW 21:32:26 41° SSE
Cosmos 2221 Rocket 3.8 21:26:01 10° N 21:30:11 56° ENE 21:30:11 56° ENE
CZ-2C R/B 3.8 21:32:30 33° NW 21:32:30 33° NW 21:34:22 10° NNW
Cosmos 1346 Rocket 3.2 21:28:45 10° N 21:31:34 49° NNE 21:31:34 49° NNE
Lacrosse 5 rocket 2.6 21:32:26 10° W 21:34:04 26° W 21:34:04 26° W
Cosmos 1378 Rocket 4.1 21:35:19 10° NNW 21:39:36 51° W 21:40:16 46° SW
DNEPR-1 R/B 4.3 21:45:57 41° NE 21:45:57 41° NE 21:48:54 10° NE
Meteor 2-8 Rocket 4.3 21:47:10 48° SSW 21:49:02 88° W 21:55:09 10° N
Cosmos 1656 Rocket 3.5 21:44:16 10° NNW 21:49:43 74° ENE 21:50:17 67° ESE
Cosmos 1943 Rocket 3.5 21:47:50 10° NW 21:52:47 32° WSW 21:54:29 26° SW
Cosmos 614 Rocket 4.2 21:48:21 10° NNW 21:53:27 58° WSW 21:53:59 55° SW
SL-16 R/B 3.5 21:58:05 26° ENE 21:58:05 26° ENE 22:01:11 10° NE
Cosmos 1733 Rocket 4.4 21:55:13 28° WSW 21:56:44 36° WNW 22:00:49 10° N
SeaSat 1 2.3 21:59:30 88° SSE 21:59:33 90° SSW 22:04:30 10° NNW
Cosmos 2123 Rocket 3.9 21:56:19 10° NNW 22:02:34 81° W 22:03:50 59° S
USA 59 Rocket 1.1 22:00:58 10° NW 22:02:49 32° WNW 22:02:49 32° WNW
Cosmos 1934 Rocket 3.9 22:03:44 64° SSE 22:04:45 80° E 22:11:02 10° NNE
Cosmos 1140 Rocket 4.5 22:03:46 10° N 22:08:30 34° NE 22:08:44 34° ENE
NOSS 3-4 (A) 3.1 22:10:28 51° SW 22:11:56 82° NW 22:17:55 10° NE
NOSS 3-4 (C) 3.1 22:11:02 52° SW 22:12:25 83° NW 22:18:26 10° NE
Cosmos 2285 Rocket 4.1 22:19:16 57° E 22:19:16 57° E 22:25:11 10° NNE
NOSS 3-1 (C) 4.1 22:19:34 10° NW 22:26:10 64° NE 22:28:44 43° E
Cosmos 1535 Rocket 4.3 22:26:51 74° ESE 22:26:57 74° E 22:33:04 10° NNE
ATLAS 5 CENTAUR R/B 4.0 22:25:28 10° NNW 22:27:35 15° NNE 22:29:34 11° NE
RESURS DK-1 4.3 22:30:06 23° NNE 22:30:06 23° NNE 22:31:44 10° NNE
ALOS 2 4.0 22:29:40 32° NE 22:29:40 32° NE 22:32:44 10° N
Cosmos 2237 Rocket 2.9 22:29:12 28° WSW 22:32:01 51° NW 22:37:36 10° NNE
Cosmos 1125 Rocket 4.2 22:31:27 43° W 22:32:34 51° WNW 22:37:42 10° NNE
Cosmos 1605 Rocket 3.8 22:32:45 76° E 22:32:46 76° E 22:38:52 10° NNE
Cosmos 2297 3.7 22:31:47 10° NNW 22:37:29 76° NE 22:37:29 76° NE
ARIANE 5 R/B 3.7 22:40:11 39° NNE 22:40:11 39° NNE 22:43:10 10° N
Cosmos 1975 Rocket 4.0 22:38:18 10° NNW 22:41:32 47° NNW 22:41:32 47° NNW
COSMOS 2455 4.0 22:37:56 10° NNW 22:43:29 36° NE 22:45:16 30° ENE
Cosmos 2150 Rocket 4.4 22:54:11 56° NNE 22:54:11 56° NNE 22:58:17 10° NNE
Cosmos 2100 Rocket 4.5 23:00:25 46° ENE 23:00:25 46° ENE 23:05:43 10° NNE
USA 234 3.9 22:54:24 10° E 23:00:42 53° N 23:07:01 10° WNW
Cosmos 2369 Rocket 2.5 22:57:56 10° NNW 23:02:43 59° WNW 23:02:43 59° WNW
Cosmos 2263 4.4 23:04:16 10° NNW 23:09:06 65° NW 23:09:06 65° NW
NOSS 3-1 (A) 4.2 23:10:39 10° NW 23:17:19 63° NE 23:19:58 43° E
Cosmos 1943 4.0 23:21:35 41° ENE 23:21:35 41° ENE 23:25:31 10° NE
SJ 16-02 3.0 23:30:41 10° N 23:33:17 30° NNE 23:33:17 30° NNE
Cosmos 407 Rocket 4.1 23:30:21 10° NNW 23:34:21 53° N 23:34:21 53° N
SL-16 R/B 2.7 23:39:53 51° WNW 23:40:05 51° NW 23:45:38 10° NNE
ACS3 Solar Sail 3.7 23:36:26 10° NE 23:40:06 16° E 23:40:25 16° E
Cosmos 1802 Rocket 4.1 23:43:35 66° ENE 23:43:35 66° ENE 23:49:31 10° NNE
CZ-2C R/B 3.0 23:44:18 62° NE 23:44:18 62° NE 23:49:15 10° N
Meteor 2-3 Rocket 4.0 23:41:01 10° NNW 23:45:50 66° N 23:45:50 66° N
Cosmos 1725 Rocket 4.1 23:48:08 65° ENE 23:48:08 65° ENE 23:54:04 10° NNE
